Retour au catalogue

IRS 1C

ActifScienceSSO
NORAD 23751·PAYLOAD·🇮🇳 India

Lancé Dec 28, 1995 depuis Baikonur Cosmodrome

Loading…

Prochains Passages (prochaines 24 heures)

TLE

FraisSource: Space-Track

Époque: Sep 14, 2026, 11:38 UTC

1 23751U 95072A   26257.48492671  .00000042  00000-0  39133-4 0  9993
2 23751  99.0199 278.8185 0001205  90.7724 269.3592 14.23585514594274

Suivez IRS 1C en temps réel avec AllMySat

Download on the App Store